C/2024 G2 ( ATLAS )

Japanese version
Home page
Updated on June 29, 2024

---------------------------------------------------------------------

* Profile

Discovery Date April 8, 2024
Magnitude 18.6 mag
Discoverer Asteroid Terrestrial-Impact Last Alert System (ATLAS) search program

* Pictures

* Orbital Elements

Epoch 2024 Mar. 31.0 TT = JDT 2460400.5
T 2025 June 13.53408 TT                                 Rudenko
q   5.3480564            (2000.0)            P               Q
z  +0.0012582      Peri.  328.73141     -0.88647662     -0.44501950
 +/-0.0001347      Node   171.37757     +0.04194982     +0.19592448
e   0.9932712      Incl.  122.13617     -0.46086811     +0.87382564
>From 63 observations 2024 Apr. 8-May 17, mean residual 0".4.

* Magnitudes Graph

        m1 = 6.5 + 5 log d + 10.0 log r

---------------------------------------------------------------------

The orbital elements are published on M.P.E.C. 2024-K130.
The magnitudes graphs are made with Comet for Windows.

---------------------------------------------------------------------

Copyright(C) Seiichi Yoshida (comet@aerith.net). All rights reserved.